Wind_Speed
38 38 33 31 36 31 29 27 25 26 27 28 26 22 23 24 18 19 20 18 21 24 28 30 30 29 30 29 30 29 29 30 30 30 30 29 29 28 28 28 29 31 32 34
42 40 35 38 36 34 32 31 30 30 32 33 30 27 26 27 26 24 23 23 26 28 30 33 34 32 31 34 33 33 33 33 33 32 32 31 32 31 31 31 31 33 34 35
45 43 40 40 39 37 36 36 35 36 35 36 35 37 29 28 30 30 28 29 29 32 35 37 38 37 34 32 35 37 37 36 36 36 35 34 34 34 35 36 35 35 36 37
49 47 43 41 41 41 41 40 40 39 39 38 39 49 32 28 31 31 31 33 34 33 39 44 44 43 42 37 38 39 39 38 37 37 36 36 38 39 39 41 40 39 40 40
49 47 46 44 42 43 44 42 41 41 40 40 44 47 40 32 31 31 33 34 36 38 43 45 46 45 45 41 38 38 38 37 36 36 37 38 39 41 42 44 44 43 43 44
53 52 48 47 45 44 45 44 43 43 41 44 47 46 44 39 36 35 35 37 39 39 42 40 43 44 41 40 38 36 37 37 34 36 38 38 39 41 43 44 45 45 46 46
53 53 51 49 48 46 45 45 43 44 46 47 49 50 49 43 47 40 41 41 41 39 39 40 40 42 42 40 37 35 35 36 37 38 39 40 40 42 43 44 46 47 48 49
53 55 54 52 49 47 45 46 48 51 50 48 50 56 51 44 45 48 51 46 46 45 43 40 40 36 41 45 43 40 38 39 40 41 41 42 42 44 45 46 46 47 48 49
53 54 53 51 50 50 50 50 48 49 50 54 55 52 50 48 49 50 51 57 52 51 48 35 41 37 36 39 41 42 42 42 42 43 43 44 46 45 45 47 46 46 47 49
54 56 55 54 53 53 53 52 52 53 53 55 55 54 53 53 56 56 57 56 56 49 37 33 37 39 36 37 38 40 41 42 43 44 46 48 47 47 48 47 47 48 50 51
53 56 58 58 58 56 54 55 56 56 56 56 56 55 55 58 60 60 62 58 49 39 29 29 34 39 41 43 42 42 43 43 44 45 44 43 44 44 46 48 48 50 51 53
53 56 59 57 55 58 59 59 61 63 62 61 60 61 58 60 63 62 60 61 49 42 36 30 32 36 42 46 46 45 46 46 47 48 47 46 46 47 48 49 49 51 54 56
45 48 47 57 64 64 62 58 56 56 57 59 61 65 62 65 65 60 55 53 50 48 46 44 38 39 43 48 50 50 50 51 51 51 51 52 53 52 50 50 51 53 55 56
60 61 57 56 54 58 59 59 59 57 58 70 66 70 66 63 58 51 50 51 52 53 51 52 51 48 49 51 53 53 52 51 51 53 53 53 52 52 53 52 51 53 55 58
66 63 63 58 56 54 56 55 54 55 58 56 62 56 66 52 51 53 53 50 55 54 55 58 56 55 52 52 53 53 51 50 51 53 54 54 55 55 54 54 54 54 56 58
65 65 65 69 62 63 65 63 59 60 58 58 58 59 49 45 48 49 52 54 52 54 57 56 53 53 53 51 48 47 48 50 52 53 54 54 54 53 53 52 53 56 58 59
62 63 56 69 71 72 72 66 63 62 60 61 61 53 45 48 49 50 56 58 57 57 53 52 52 52 51 48 46 44 46 46 48 48 49 49 48 48 49 50 52 53 55 58
68 51 66 61 62 72 77 71 70 70 65 63 64 58 49 48 49 51 55 56 55 53 53 53 51 50 50 50 49 48 46 45 46 47 47 47 48 50 52 53 54 56 57 59
76 70 58 59 75 74 72 69 69 73 71 64 63 55 48 49 55 51 50 52 50 50 53 55 56 55 56 56 53 50 49 49 49 49 49 51 53 54 56 56 56 57 58 59
69 70 70 63 67 75 78 70 60 66 76 62 64 57 50 54 60 52 56 56 56 59 60 60 60 59 58 58 57 54 53 53 54 54 54 55 54 54 55 56 57 60 61 62
71 69 75 79 77 76 67 70 73 72 79 67 67 70 65 64 64 61 60 58 58 59 61 67 68 64 64 65 64 63 61 60 58 55 54 54 55 57 59 60 60 61 62 62
70 71 68 65 79 75 72 68 69 75 76 74 72 70 67 69 74 72 73 75 75 72 68 66 68 67 70 68 65 61 60 59 59 59 59 60 61 61 61 61 61 61 63 64
76 70 70 68 65 64 66 70 67 69 72 69 69 70 72 70 69 71 71 73 74 80 80 78 74 70 70 68 65 65 67 67 67 64 62 61 61 62 61 63 62 61 61 61
69 66 53 59 67 64 49 50 58 60 57 63 56 56 63 65 70 71 68 69 70 69 72 73 74 73 72 74 71 65 65 62 62 61 57 55 55 58 58 58 57 56 57 60
59 60 59 59 59 61 62 48 47 47 47 46 39 45 52 53 50 53 48 43 50 59 63 64 70 67 63 59 57 57 53 54 57 58 55 57 60 62 64 66 66 65 65 64
73 75 71 65 60 68 71 76 59 61 61 50 58 58 55 48 45 46 44 44 44 45 46 41 40 42 46 47 49 50 52 54 55 57 59 61 63 65 62 60 61 58 58 59
Wind_Direction
231 233 234 236 238 240 241 242 245 251 257 258 264 264 270 277 280 280 282 284 291 297 299 300 294 288 280 279 276 269 265 263 263 263 264 267 271 273 275 275 274 273 271 269
233 235 235 238 241 243 243 246 249 251 255 261 263 264 269 275 279 281 282 286 290 300 299 298 295 289 286 276 271 273 268 265 263 264 264 266 268 272 274 276 274 272 271 271
235 237 238 240 244 246 248 250 252 254 257 263 267 265 263 272 277 280 286 286 290 297 300 296 292 289 282 278 270 264 265 264 263 263 264 266 269 274 274 273 274 274 274 273
236 238 240 244 247 250 250 253 255 258 261 263 267 273 266 270 272 276 281 285 289 293 296 292 289 284 283 279 270 268 269 269 267 266 267 268 270 272 272 271 273 275 276 274
239 240 242 241 245 249 252 254 257 260 262 264 265 272 276 271 271 274 277 282 286 292 292 289 287 279 274 278 275 267 267 270 267 266 267 269 271 271 269 270 270 271 272 273
242 242 242 244 246 249 252 255 256 258 261 263 268 272 273 281 282 283 286 288 288 295 295 286 283 280 272 276 275 272 268 267 267 266 267 270 272 273 273 273 273 273 273 273
246 247 247 246 247 248 251 255 259 259 258 263 267 270 275 283 290 291 288 289 291 297 294 286 281 276 273 274 273 269 268 266 265 267 270 272 272 273 273 273 273 273 272 272
246 245 247 248 249 252 250 250 253 259 262 264 264 269 278 284 285 289 292 293 296 296 295 284 282 274 265 268 273 274 273 272 271 270 271 273 275 275 273 274 273 274 272 271
250 249 249 250 251 250 252 253 255 258 260 262 266 272 277 282 285 285 288 295 298 298 296 281 270 272 268 267 269 270 272 272 272 271 273 275 274 274 275 274 273 274 273 272
247 249 246 246 247 249 252 253 253 255 258 262 268 271 276 280 281 285 289 292 299 300 286 267 267 270 271 273 272 272 273 274 275 274 273 272 272 272 273 273 272 272 273 272
245 248 247 247 249 251 249 252 254 257 256 259 264 266 273 276 279 284 287 291 295 290 273 262 258 263 268 271 274 275 276 278 278 277 278 279 278 277 276 275 273 272 273 274
246 250 248 250 247 247 249 251 251 252 256 260 264 267 270 275 278 283 286 288 288 278 273 263 259 261 263 268 270 272 275 276 277 279 280 280 280 282 282 280 279 276 275 274
250 247 249 250 251 251 254 257 260 262 262 263 267 269 273 276 280 281 280 278 275 273 271 273 271 267 267 270 273 272 270 274 277 279 281 282 283 282 282 282 280 279 278 277
251 252 253 253 256 255 254 255 256 256 255 267 265 271 269 274 277 276 273 270 271 274 277 275 275 272 273 277 277 276 275 275 276 278 279 281 283 284 284 283 282 282 281 280
250 254 255 256 256 254 252 251 248 250 254 253 266 262 269 266 271 272 269 268 268 271 274 274 275 279 279 276 275 273 273 275 275 274 276 278 279 282 284 285 284 282 282 283
248 248 252 255 254 253 256 255 255 253 251 254 259 261 270 272 268 264 263 267 268 269 271 276 280 281 282 284 285 281 277 276 273 272 273 276 278 279 280 281 281 280 280 281
248 252 259 257 254 253 251 254 256 261 260 261 260 266 261 259 262 269 264 263 266 269 273 273 274 277 280 284 286 287 285 283 283 281 277 277 277 277 276 277 278 278 278 277
250 256 247 245 248 250 257 258 262 265 264 266 267 266 269 266 260 259 264 268 267 266 269 272 272 274 279 281 284 286 288 289 289 288 286 283 281 280 280 280 279 278 278 278
248 248 246 257 254 258 256 255 261 263 263 261 265 269 268 265 263 253 260 264 267 268 268 270 274 276 278 280 283 283 285 287 289 288 286 284 283 283 283 282 280 278 278 278
246 246 246 251 258 263 265 259 257 262 259 258 256 255 255 259 264 264 259 263 267 267 267 269 272 274 276 278 281 283 284 285 286 286 287 286 284 283 282 281 282 281 281 281
248 250 253 251 247 252 257 258 258 258 265 262 257 250 249 253 257 258 256 261 268 269 269 269 271 273 276 277 279 279 279 279 280 281 283 283 282 282 282 283 282 281 282 282
252 250 252 254 248 252 256 258 256 265 266 265 258 257 259 259 258 258 258 261 264 266 268 269 269 272 274 273 275 277 278 278 278 278 279 278 279 279 280 280 279 278 278 277
249 251 251 253 257 260 263 260 262 260 258 260 261 260 262 263 257 256 258 258 259 259 261 266 269 267 266 268 273 277 276 276 278 277 276 276 278 281 282 280 280 278 277 276
247 246 248 252 257 254 249 242 251 246 248 248 250 252 255 256 257 260 257 258 257 258 256 257 258 261 263 266 271 272 273 275 274 276 278 282 285 286 287 287 283 280 278 279
235 229 234 241 238 249 238 230 236 248 252 247 242 246 245 253 255 253 252 261 262 263 264 264 263 266 269 267 266 265 266 272 275 277 275 278 277 279 282 283 283 283 283 284
236 233 232 239 240 232 236 239 256 260 266 277 267 272 277 279 271 270 271 274 278 272 276 276 274 269 264 267 270 269 270 273 274 273 274 276 278 281 280 280 280 280 279 277
Height
5819 5823 5828 5831 5830 5835 5838 5839 5841 5842 5842 5843 5845 5849 5850 5849 5853 5852 5852 5852 5852 5851 5849 5847 5846 5846 5845 5845 5844 5844 5845 5845 5846 5846 5846 5846 5846 5846 5845 5845 5845 5844 5844 5843
5812 5816 5820 5822 5825 5828 5831 5833 5835 5836 5835 5836 5838 5842 5844 5844 5846 5847 5847 5847 5845 5845 5843 5841 5839 5839 5838 5837 5837 5837 5836 5837 5837 5838 5838 5839 5838 5839 5838 5837 5837 5836 5835 5834
5803 5808 5813 5815 5818 5822 5823 5825 5826 5827 5829 5830 5831 5831 5838 5840 5839 5840 5840 5839 5839 5838 5836 5834 5832 5830 5830 5830 5828 5826 5827 5827 5829 5830 5830 5831 5831 5831 5830 5829 5828 5827 5827 5826
5794 5798 5804 5809 5812 5813 5815 5816 5817 5820 5821 5823 5824 5812 5831 5835 5834 5834 5833 5831 5831 5830 5828 5825 5823 5821 5819 5820 5818 5818 5819 5820 5821 5822 5822 5823 5823 5823 5821 5819 5819 5819 5817 5817
5788 5790 5793 5798 5802 5802 5806 5808 5809 5810 5812 5814 5814 5812 5816 5826 5828 5829 5827 5825 5823 5822 5820 5816 5812 5810 5810 5810 5809 5809 5810 5811 5813 5813 5813 5813 5813 5812 5811 5810 5809 5808 5807 5805
5776 5780 5784 5788 5791 5793 5796 5797 5799 5800 5802 5804 5805 5808 5803 5813 5818 5819 5819 5816 5814 5813 5809 5806 5802 5800 5801 5802 5801 5800 5801 5802 5803 5803 5803 5803 5803 5802 5801 5800 5799 5798 5797 5795
5766 5770 5774 5777 5780 5782 5785 5787 5788 5790 5790 5795 5795 5796 5795 5806 5801 5808 5806 5806 5804 5803 5799 5796 5794 5792 5791 5792 5791 5791 5792 5793 5793 5793 5793 5793 5792 5791 5790 5789 5788 5787 5786 5785
5753 5757 5761 5768 5770 5772 5773 5776 5777 5774 5779 5784 5784 5782 5789 5797 5797 5793 5789 5793 5794 5790 5789 5787 5785 5782 5781 5781 5782 5783 5783 5783 5783 5783 5783 5782 5781 5780 5779 5777 5776 5775 5775 5773
5740 5744 5750 5755 5756 5758 5762 5764 5768 5764 5767 5767 5774 5780 5781 5783 5785 5785 5783 5778 5779 5778 5775 5775 5774 5773 5772 5772 5772 5772 5772 5772 5772 5772 5772 5771 5769 5768 5767 5765 5764 5763 5763 5761
5727 5730 5736 5739 5741 5744 5747 5753 5752 5752 5754 5754 5762 5765 5771 5773 5771 5771 5770 5769 5767 5766 5765 5763 5765 5765 5764 5763 5762 5762 5762 5762 5762 5761 5760 5759 5758 5757 5756 5754 5753 5751 5750 5749
5714 5715 5722 5724 5729 5733 5734 5738 5739 5740 5740 5741 5746 5756 5763 5761 5760 5760 5758 5760 5759 5756 5755 5755 5756 5755 5755 5753 5753 5753 5752 5752 5751 5749 5748 5747 5746 5744 5743 5742 5741 5739 5738 5736
5702 5700 5706 5711 5713 5716 5719 5725 5724 5722 5727 5728 5733 5742 5753 5752 5748 5750 5748 5746 5749 5745 5744 5746 5745 5745 5743 5742 5742 5743 5742 5740 5739 5738 5737 5736 5734 5733 5732 5731 5729 5727 5725 5723
5688 5684 5690 5693 5700 5703 5704 5711 5714 5713 5713 5715 5718 5732 5743 5737 5738 5738 5738 5735 5732 5733 5731 5733 5735 5734 5733 5732 5731 5730 5729 5729 5728 5727 5726 5724 5723 5721 5719 5717 5716 5714 5712 5711
5669 5667 5674 5681 5689 5687 5690 5695 5697 5696 5694 5705 5701 5718 5726 5724 5722 5726 5726 5722 5719 5717 5719 5718 5718 5720 5721 5719 5718 5718 5718 5719 5717 5715 5714 5712 5710 5708 5706 5704 5703 5701 5699 5697
5653 5654 5659 5668 5672 5673 5675 5679 5680 5678 5686 5681 5697 5693 5710 5713 5713 5709 5707 5709 5704 5705 5704 5701 5704 5705 5705 5705 5705 5705 5705 5705 5704 5702 5701 5699 5697 5696 5694 5692 5690 5687 5686 5683
5639 5640 5644 5647 5659 5658 5656 5662 5667 5669 5673 5669 5679 5679 5701 5701 5697 5696 5695 5690 5692 5691 5688 5690 5691 5690 5689 5688 5690 5690 5691 5689 5689 5688 5687 5685 5684 5682 5680 5678 5676 5674 5671 5669
5621 5625 5629 5628 5644 5636 5629 5652 5658 5657 5661 5663 5659 5676 5682 5681 5683 5685 5681 5676 5677 5676 5677 5678 5677 5677 5676 5676 5675 5675 5674 5673 5673 5673 5672 5671 5669 5668 5666 5664 5662 5659 5657 5654
5607 5613 5614 5613 5621 5602 5623 5641 5642 5641 5647 5648 5646 5660 5669 5667 5666 5667 5665 5664 5664 5664 5663 5663 5662 5663 5663 5662 5662 5662 5661 5660 5660 5658 5656 5655 5654 5653 5651 5649 5647 5644 5642 5639
5593 5596 5596 5593 5596 5600 5601 5629 5631 5622 5626 5635 5633 5645 5652 5650 5642 5651 5653 5649 5651 5649 5650 5651 5650 5649 5649 5648 5648 5648 5647 5646 5646 5644 5643 5640 5638 5637 5635 5633 5631 5628 5626 5624
5576 5579 5579 5581 5578 5575 5594 5617 5611 5603 5588 5632 5621 5626 5633 5631 5625 5642 5634 5633 5634 5636 5637 5637 5636 5634 5633 5634 5634 5633 5632 5631 5630 5629 5628 5626 5624 5622 5619 5617 5615 5613 5609 5608
5558 5558 5556 5560 5560 5559 5578 5594 5592 5575 5591 5609 5605 5610 5611 5610 5611 5617 5621 5620 5617 5618 5620 5619 5618 5619 5619 5619 5619 5618 5617 5616 5615 5614 5612 5610 5608 5606 5603 5601 5598 5596 5594 5592
5538 5543 5543 5545 5545 5545 5570 5573 5570 5571 5574 5583 5585 5589 5593 5595 5595 5597 5601 5604 5603 5600 5602 5603 5603 5603 5603 5602 5601 5601 5601 5600 5599 5597 5596 5594 5592 5590 5587 5585 5582 5579 5577 5574
5519 5528 5529 5532 5533 5541 5551 5551 5553 5551 5553 5559 5564 5566 5570 5573 5574 5575 5578 5582 5584 5584 5584 5585 5585 5585 5585 5584 5585 5585 5583 5582 5580 5579 5577 5575 5573 5572 5569 5567 5565 5562 5559 5556
5501 5514 5511 5512 5522 5530 5532 5531 5536 5534 5536 5540 5544 5547 5549 5551 5553 5555 5556 5559 5562 5563 5564 5564 5564 5565 5565 5566 5566 5565 5565 5565 5563 5561 5559 5557 5555 5553 5551 5549 5547 5544 5541 5539
5487 5493 5496 5500 5513 5514 5521 5517 5513 5514 5517 5521 5525 5530 5532 5535 5536 5536 5538 5541 5543 5545 5545 5546 5547 5548 5548 5549 5549 5548 5547 5546 5545 5544 5544 5542 5540 5537 5534 5532 5529 5526 5523 5520
5470 5478 5479 5484 5496 5492 5501 5501 5499 5501 5503 5504 5509 5512 5515 5521 5522 5522 5523 5524 5526 5530 5531 5531 5531 5532 5532 5532 5532 5531 5531 5531 5529 5528 5525 5525 5522 5520 5516 5513 5510 5507 5505 5503